STARLINK-3056, 49159

Orbit data source: Space-Track

STARLINK-3056, 49159 is a payload satellite owned by SpaceX/Seattle (US) in LEO that was launched on Tue, 14 Sep 2021 UTC via an FALCON 9 launch vehicle from the Air Force Western Test Range (AFWTR). Payload-class satellites include a variety of spacecraft equipped with specific instruments for various scientific and technological missions. These include communications satellites like Starlink; space stations such as the ISS; scientific satellites like the Hubble; Earth observation satellites from companies like Planet Labs, Umbra, and HawkEye 360; GPS; miniature CubeSats for education and research; and military/defense satellites.

Loading next visibility...
Identifier
49159, 2021-082AF
Orbit
LEO
Country
Flag of USUS
Related business
Manufacturer
SpaceX/Seattle
Mission
Operational Commercial Communications
Bus & Motor
STARLINK, Unknown motor
Mass
297 kg wet, ~275 kg dry
Launch date (UTC)
2021-09-14 (4 years ago)
Launch vehicle
FALCON 9
Launch site
Air Force Western Test Range (AFWTR)
Object type
Payload
Rocket body
Debris
Shape & HBR
Box + 1 Pan, 10.1 m
Radar Cross Section
13.562 m², Large (>1 m²)

Expand to show TLE details & history
Last TLE update: 6 hours ago

TLE from 6 hours ago
0 STARLINK-3056
1 49159U 21082AF  25310.78381620  .00000889  00000-0  82302-4 0  9991
2 49159  69.9994 244.3425 0002638 265.2513  94.8345 14.98333826228667
Epoch: 2025-11-06T18:48Z
TLE epoch observation values (Epoch: 2025-11-06T18:48:41.719Z)
Latitude
-0.00002°
Longitude
-84.06851°
Altitude
574.623 km
Speed
7.574 km/s
True Right ascension
16h 17m 22s
True Declination
0° 00' 00"
Sunlit
Object was in daylight at epoch
Visualization orbit readout
Latitude
Unknown
Longitude
Unknown
Altitude
Unknown
Speed
Unknown
Apparent Right ascension
Unknown
Apparent Declination
Unknown
Sunlit
N/A
Visualization observer readout
Local Sidereal Time
21:21:09
Azimuth
Unknown
Elevation
Unknown
Doppler factor
Unknown
Orbital elements
Apogee altitude
571.825 km
Perigee altitude
568.159 km
Semi-major axis
6,948.129 km
Eccentricity
0.00026
Inclination
69.9994°
RAAN
244.3425°
Arg. of periapsis
265.2513°
True anomaly
94.86462°
Mean anomaly
94.8345°
Eccentric anomaly
94.84956°
Mean motion
3.7475 °/min
Orbital period
96.06 mins
BSTAR
0.000082302
Loading maneuver chart data...
Computing Atmospheric mass density...

Documentation

Showing up to 5 results
|